Le nostre stazioni meteo in Italia

Pubblicità
Il mio iltempo24.it
Lecce, Italia (16332): Temperatura & dewpoint: 19.01.2020 06:00:00 - 25.01.2020 06:00:00 (CET)Lecce, Italia (16332): velocità del vento: 19.01.2020 06:00:00 - 25.01.2020 06:00:00 (CET)Lecce, Italia (16332): direzione del vento: 19.01.2020 06:00:00 - 25.01.2020 06:00:00 (CET)Lecce, Italia (16332): reduced air pressure: 19.01.2020 06:00:00 - 25.01.2020 06:00:00 (CET)Lecce, Italia (16332): visibility: 19.01.2020 06:00:00 - 25.01.2020 06:00:00 (CET)
Data & Tempo tt [°C] td [°C] ff [km/h] ff [kn] dd ppp [hPa] vv [km]
25.01.2020 06:00:00 11,0 9,0 13 7 SSE - 10
25.01.2020 05:00:00 11,0 8,0 11 6 SE - 10
25.01.2020 04:00:00 11,0 8,0 13 7 SSE 1026,7 10
25.01.2020 03:00:00 11,0 8,0 11 6 SE - 10
25.01.2020 02:00:00 10,0 7,0 13 7 SE - 10
25.01.2020 01:00:00 10,4 7,1 9 5 SE 1027,2 10
25.01.2020 00:00:00 10,0 7,0 11 6 SE - 10
24.01.2020 23:00:00 10,0 7,0 11 6 SE - 10
24.01.2020 22:00:00 10,0 7,4 9 5 SSE 1028,6 10
24.01.2020 21:00:00 10,0 7,0 13 7 SE - 10
24.01.2020 20:00:00 10,0 7,0 11 6 SE - 10
24.01.2020 19:00:00 9,8 6,9 13 7 SE 1028,6 10
24.01.2020 18:00:00 10,0 7,0 11 6 SE - 10
24.01.2020 17:00:00 11,0 7,0 13 7 SSE - 10
24.01.2020 16:00:00 12,8 6,8 18 10 S 1028,4 10
24.01.2020 15:00:00 13,0 7,0 16 9 S - 10
24.01.2020 14:00:00 13,0 7,0 16 9 S - 10
24.01.2020 13:00:00 13,2 7,9 16 9 SSO 1029,1 10
24.01.2020 12:00:00 14,0 8,0 16 9 S - 10
24.01.2020 11:00:00 14,0 10,0 16 9 S - 8
24.01.2020 10:00:00 9,0 7,3 9 5 SSO 1029,6 5
24.01.2020 09:00:00 5,0 3,0 4 2 - - 1,6
24.01.2020 08:00:00 0,0 -1,0 0 0 N - 0,6
24.01.2020 07:00:00 0,2 -1,2 0 0 N 1028,9 0,6
24.01.2020 06:00:00 0,0 -1,0 0 0 N - 0,6
24.01.2020 05:00:00 0,0 -1,0 0 0 N - 0,4
24.01.2020 04:00:00 0,6 -1,0 0 0 N 1028,7 1,5
24.01.2020 03:00:00 1,0 -1,0 0 0 N - 3,0
24.01.2020 02:00:00 3,0 2,0 0 0 N - 7
24.01.2020 01:00:00 3,2 1,6 0 0 N 1028,8 10
24.01.2020 00:00:00 6,0 4,0 9 5 NNO - 10
23.01.2020 23:00:00 6,0 4,0 9 5 NNO - 10
23.01.2020 22:00:00 5,2 3,2 11 6 NNO 1028,4 10
23.01.2020 21:00:00 6,0 4,0 5 3 NO - 8
23.01.2020 20:00:00 7,0 4,0 8 4 NO - 10
23.01.2020 19:00:00 6,8 4,5 9 5 ONO 1027,6 10
23.01.2020 18:00:00 9,0 6,0 9 5 NO - 10
23.01.2020 17:00:00 12,0 8,0 13 7 N - 10
23.01.2020 16:00:00 13,4 9,5 26 14 N 1027,1 10
23.01.2020 15:00:00 13,0 9,0 24 13 N - 10
23.01.2020 14:00:00 13,0 9,0 29 16 N - 10
23.01.2020 13:00:00 13,2 8,9 28 15 N 1027,7 10
23.01.2020 12:00:00 13,0 9,0 28 15 N - 10
23.01.2020 11:00:00 12,0 9,0 21 11 NNO - 8
23.01.2020 10:00:00 10,2 8,3 16 9 NNO 1028,5 8
23.01.2020 09:00:00 9,0 7,0 13 7 ONO - 7
23.01.2020 08:00:00 8,0 6,0 9 5 ONO - 9
23.01.2020 07:00:00 7,4 5,7 8 4 ONO 1028,1 9
23.01.2020 06:00:00 7,0 6,0 9 5 ONO - 10
23.01.2020 05:00:00 8,0 6,0 11 6 ONO - 10
23.01.2020 04:00:00 6,8 5,3 9 5 ONO 1028,4 10
23.01.2020 03:00:00 6,0 4,0 9 5 NO - 10
23.01.2020 02:00:00 5,0 3,0 5 3 NO - 10
23.01.2020 01:00:00 4,0 2,4 9 5 NO 1029,9 10
23.01.2020 00:00:00 4,0 3,0 8 4 NNO - 10
22.01.2020 23:00:00 5,0 3,0 8 4 NO - 10
22.01.2020 22:00:00 5,0 3,2 8 4 NNO 1029,7 10
22.01.2020 21:00:00 6,0 4,0 8 4 N - 10
22.01.2020 20:00:00 6,0 4,0 9 5 NO - 10
22.01.2020 19:00:00 7,0 4,7 9 5 NO 1030,3 10
22.01.2020 18:00:00 8,0 5,0 9 5 NNO - 10
22.01.2020 17:00:00 11,0 8,0 15 8 NNO - 10
22.01.2020 16:00:00 12,4 8,7 15 8 N 1030,9 10
22.01.2020 15:00:00 13,0 9,0 16 9 N - 10
22.01.2020 14:00:00 13,0 9,0 16 9 N - 10
22.01.2020 13:00:00 12,6 8,9 18 10 N 1032,4 10
22.01.2020 12:00:00 12,0 9,0 22 12 N - 10
22.01.2020 11:00:00 11,0 9,0 15 8 NNO - 8
22.01.2020 10:00:00 9,2 8,1 16 9 NNO 1034,6 8
22.01.2020 09:00:00 5,0 4,0 9 5 NO - 5
22.01.2020 08:00:00 3,0 2,0 5 3 NO - 5
22.01.2020 07:00:00 0,8 -0,2 8 4 NO 1034,8 1,1
22.01.2020 06:00:00 -1,0 -2,0 5 3 - - 2,5
22.01.2020 05:00:00 0,0 -1,0 5 3 - - 0,6
22.01.2020 04:00:00 0,0 -1,0 4 2 N 1035,5 1,5
22.01.2020 03:00:00 1,0 0,0 2 1 - - 3,0
22.01.2020 02:00:00 1,0 0,0 2 1 - - 6
22.01.2020 01:00:00 1,8 0,6 4 2 N 1036,0 10
22.01.2020 00:00:00 2,0 1,0 4 2 - - 10
21.01.2020 23:00:00 3,0 2,0 4 2 - - 10
21.01.2020 22:00:00 3,6 2,1 4 2 N 1036,6 10
21.01.2020 21:00:00 5,0 3,0 4 2 - - 10
21.01.2020 20:00:00 5,0 3,0 5 3 ONO - 10
21.01.2020 19:00:00 6,2 3,4 5 3 NO 1037,4 10
21.01.2020 18:00:00 8,0 5,0 9 5 NNO - 10
21.01.2020 17:00:00 10,0 6,0 11 6 N - 10
21.01.2020 16:00:00 12,2 6,9 18 10 N 1037,6 10
21.01.2020 15:00:00 12,0 7,0 21 11 N - 10
21.01.2020 14:00:00 13,0 7,0 9 5 N - 10
21.01.2020 13:00:00 12,6 6,9 18 10 N 1038,4 10
21.01.2020 12:00:00 13,0 7,0 15 8 N - 10
21.01.2020 11:00:00 12,0 7,0 21 11 N - 10
21.01.2020 10:00:00 11,2 7,1 13 7 N 1039,5 9
21.01.2020 09:00:00 5,0 5,0 4 2 NNO - 7
21.01.2020 08:00:00 2,0 1,0 4 2 - - 7
21.01.2020 07:00:00 1,8 1,1 4 2 N 1038,9 8
21.01.2020 06:00:00 4,0 3,0 5 3 NO - 10
21.01.2020 05:00:00 5,0 4,0 5 3 N - 10
21.01.2020 04:00:00 5,6 4,2 8 4 N 1038,1 10
21.01.2020 03:00:00 6,0 4,0 8 4 N - 10
21.01.2020 02:00:00 7,0 5,0 8 4 NNO - 10
21.01.2020 01:00:00 8,2 5,7 5 3 NNO 1038,4 10
21.01.2020 00:00:00 8,0 6,0 13 7 NNE - 10
20.01.2020 23:00:00 8,0 6,0 11 6 NNE - 10
20.01.2020 22:00:00 8,4 5,9 11 6 N 1038,3 10
20.01.2020 21:00:00 8,0 6,0 8 4 NNO - 10
20.01.2020 20:00:00 9,0 6,0 11 6 NNE - 10
20.01.2020 19:00:00 8,6 6,4 11 6 NNE 1037,3 10
20.01.2020 18:00:00 10,0 7,0 9 5 N - 10
20.01.2020 17:00:00 10,0 7,0 11 6 N - 10
20.01.2020 16:00:00 12,0 7,5 18 10 NNE 1035,1 10
20.01.2020 15:00:00 13,0 7,0 21 11 NNE - 10
20.01.2020 14:00:00 13,0 7,0 22 12 NNE - 10
20.01.2020 13:00:00 13,0 7,2 24 13 NNE 1034,1 10
20.01.2020 12:00:00 12,0 7,0 21 11 NNE - 10
20.01.2020 11:00:00 12,0 8,0 16 9 NNE - 10
20.01.2020 10:00:00 9,4 7,5 9 5 NNE 1033,5 10
20.01.2020 09:00:00 6,0 4,0 5 3 NNE - 7
20.01.2020 08:00:00 2,0 1,0 4 2 NNE - 6
20.01.2020 07:00:00 2,0 0,5 0 0 N 1031,4 5
20.01.2020 06:00:00 3,0 2,0 0 0 N - 10
20.01.2020 05:00:00 4,0 3,0 0 0 N - 10
20.01.2020 04:00:00 5,0 3,5 0 0 N 1029,3 10
20.01.2020 03:00:00 4,0 3,0 8 4 N - 10
20.01.2020 02:00:00 4,0 2,0 8 4 N - 10
20.01.2020 01:00:00 3,4 1,8 0 0 N 1028,2 10
20.01.2020 00:00:00 4,0 2,0 0 0 N - 10
19.01.2020 23:00:00 5,0 3,0 0 0 N - 10
19.01.2020 22:00:00 5,0 3,2 0 0 N 1026,8 10
19.01.2020 21:00:00 5,0 3,0 0 0 N - 10
19.01.2020 20:00:00 7,0 5,0 2 1 - - 10
19.01.2020 19:00:00 7,4 4,9 5 3 NO 1025,1 10
19.01.2020 18:00:00 9,0 6,0 5 3 NNO - 10
19.01.2020 17:00:00 10,0 6,0 9 5 N - 10
19.01.2020 16:00:00 12,2 7,5 15 8 NNO 1022,4 10
19.01.2020 15:00:00 14,0 9,0 13 7 N - 10
19.01.2020 14:00:00 14,0 9,0 11 6 NNO - 10
19.01.2020 13:00:00 12,2 7,1 13 7 NO 1021,6 10
19.01.2020 12:00:00 12,0 7,0 11 6 NNO - 10
19.01.2020 11:00:00 10,0 8,0 11 6 N - 10
19.01.2020 10:00:00 8,4 6,7 8 4 NNO 1021,8 8
19.01.2020 09:00:00 4,0 3,0 2 1 - - 6
19.01.2020 08:00:00 1,0 0,0 0 0 N - 8
19.01.2020 07:00:00 1,2 -0,3 0 0 N 1020,9 6
19.01.2020 06:00:00 2,0 1,0 0 0 N - 7

tt = Temperatura
td = dewpoint
ff = velocità del vento
dd = direzione del vento
ppp = reduced air pressure
vv = visibility

Stazioni seguenti

WeatherPro
AMSI
MeteoEarth